2023/09/24 00:00:00,13.4,15.7
2023/09/24 00:10:00,13.5,15.5
2023/09/24 00:20:00,13.6,15.7
2023/09/24 00:30:00,13.6,15.4
2023/09/24 00:40:00,13.5,15.5
2023/09/24 00:50:00,13.1,15.4
2023/09/24 01:00:00,11.6,15.5
2023/09/24 01:10:00, 5.4,15.5
2023/09/24 01:20:00, 1.6,15.4
2023/09/24 01:30:00, 1.7,15.4
2023/09/24 01:40:00, 1.7,15.3
2023/09/24 01:50:00, 1.8,15.3
2023/09/24 02:00:00, 1.9,15.3
2023/09/24 02:10:00, 2.1,15.2
2023/09/24 02:20:00, 2.1,15.2
2023/09/24 02:30:00, 2.2,15.2
2023/09/24 02:40:00, 2.1,14.8
2023/09/24 02:50:00, 1.9,14.8
2023/09/24 03:00:00, 1.8,14.7
2023/09/24 03:10:00, 1.8,14.7
2023/09/24 03:20:00, 2.2,14.5
2023/09/24 03:30:00, 7.6,14.7
2023/09/24 03:40:00,15.5,14.8
2023/09/24 03:50:00,15.6,14.3
2023/09/24 04:00:00,15.6,14.5
2023/09/24 04:10:00,15.5,14.5
2023/09/24 04:20:00,15.4,14.5
2023/09/24 04:30:00,15.3,14.6
2023/09/24 04:40:00,15.1,14.4
2023/09/24 04:50:00,14.9,14.5
2023/09/24 05:00:00,14.7,14.4
2023/09/24 05:10:00,14.8,14.3
2023/09/24 05:20:00,14.7,14.4
2023/09/24 05:30:00,14.7,14.4
2023/09/24 05:40:00,14.8,14.1
2023/09/24 05:50:00,14.7,14.6
2023/09/24 06:00:00,14.7,14.1
2023/09/24 06:10:00,14.6,14.0
2023/09/24 06:20:00,14.7,14.0
2023/09/24 06:30:00,14.5,14.1
2023/09/24 06:40:00,14.3,14.2
2023/09/24 06:50:00,14.1,14.2
2023/09/24 07:00:00,13.9,14.2
2023/09/24 07:10:00,13.7,14.4
2023/09/24 07:20:00,13.7,14.3
2023/09/24 07:30:00,13.6,15.4
2023/09/24 07:40:00,12.5,16.0
2023/09/24 07:50:00,12.0,16.5
2023/09/24 08:00:00,11.8,17.1
2023/09/24 08:10:00,14.0,17.7
2023/09/24 08:20:00,14.6,17.6
2023/09/24 08:30:00,14.5,18.0
2023/09/24 08:40:00,14.7,19.2
2023/09/24 08:50:00,14.8,20.4
2023/09/24 09:00:00,14.6,22.0
2023/09/24 09:10:00,---,22.4
2023/09/24 09:20:00, 1.0,23.2
2023/09/24 09:30:00, 0.2,23.5
2023/09/24 09:40:00, 0.1,24.0
2023/09/24 09:50:00, 0.1,24.7
2023/09/24 10:00:00, 0.2,24.1
2023/09/24 10:10:00, 2.0,24.3
2023/09/24 10:20:00, 1.7,25.3
2023/09/24 10:30:00, 0.3,24.7
2023/09/24 10:40:00, 0.3,24.1
2023/09/24 10:50:00, 0.2,25.4
2023/09/24 11:00:00, 0.1,25.8
2023/09/24 11:10:00, 0.1,26.5
2023/09/24 11:20:00, 0.0,26.5
2023/09/24 11:30:00, 0.0,27.2
2023/09/24 11:40:00, 0.1,27.0
2023/09/24 11:50:00, 0.1,26.0
2023/09/24 12:00:00, 0.0,27.3
2023/09/24 12:10:00, 0.1,27.5
2023/09/24 12:20:00, 0.0,27.1
2023/09/24 12:30:00, 0.1,28.1
2023/09/24 12:40:00, 0.0,28.0
2023/09/24 12:50:00, 0.0,28.5
2023/09/24 13:00:00, 0.0,28.4
2023/09/24 13:10:00, 0.0,28.6
2023/09/24 13:20:00, 0.1,28.4
2023/09/24 13:30:00, 0.1,28.1
2023/09/24 13:40:00, 0.1,27.9
2023/09/24 13:50:00, 0.0,27.5
2023/09/24 14:00:00, 0.1,27.8
2023/09/24 14:10:00, 0.2,27.5
2023/09/24 14:20:00, 0.1,27.5
2023/09/24 14:30:00, 0.1,27.0
2023/09/24 14:40:00, 0.1,27.2
2023/09/24 14:50:00, 0.1,26.1
2023/09/24 15:00:00, 0.2,26.2
2023/09/24 15:10:00, 1.0,26.2
2023/09/24 15:20:00, 6.2,25.9
2023/09/24 15:30:00,11.0,25.6
2023/09/24 15:40:00,12.6,25.1
2023/09/24 15:50:00,13.1,25.2
2023/09/24 16:00:00,13.0,24.7
2023/09/24 16:10:00,12.7,24.9
2023/09/24 16:20:00,12.5,24.4
2023/09/24 16:30:00,12.6,25.0
2023/09/24 16:40:00,12.8,25.4
2023/09/24 16:50:00,13.0,25.3
2023/09/24 17:00:00,13.1,24.8
2023/09/24 17:10:00,13.1,24.4
2023/09/24 17:20:00,13.4,22.4
2023/09/24 17:30:00,13.3,21.8
2023/09/24 17:40:00,13.2,21.3
2023/09/24 17:50:00,13.3,20.7
2023/09/24 18:00:00,13.3,20.4
2023/09/24 18:10:00,13.2,20.3
2023/09/24 18:20:00,13.1,20.0
2023/09/24 18:30:00,13.0,19.8
2023/09/24 18:40:00,13.0,19.4
2023/09/24 18:50:00,13.0,19.1
2023/09/24 19:00:00,13.1,19.1
2023/09/24 19:10:00,13.1,18.7
2023/09/24 19:20:00,13.1,18.6
2023/09/24 19:30:00,13.3,18.3
2023/09/24 19:40:00,13.4,18.3
2023/09/24 19:50:00,13.4,18.0
2023/09/24 20:00:00,13.4,17.7
2023/09/24 20:10:00,13.2,17.8
2023/09/24 20:20:00,13.2,17.5
2023/09/24 20:30:00,13.1,17.6
2023/09/24 20:40:00,13.0,17.4
2023/09/24 20:50:00,12.9,17.3
2023/09/24 21:00:00,13.2,17.4
2023/09/24 21:10:00,13.6,17.2
2023/09/24 21:20:00,14.0,17.0
2023/09/24 21:30:00,14.3,17.1
2023/09/24 21:40:00,14.4,17.2
2023/09/24 21:50:00,14.4,16.9
2023/09/24 22:00:00,14.5,16.8
2023/09/24 22:10:00,14.5,16.8
2023/09/24 22:20:00,14.6,16.7
2023/09/24 22:30:00,14.4,16.8
2023/09/24 22:40:00,13.8,16.8
2023/09/24 22:50:00, 6.6,16.6
2023/09/24 23:00:00, 0.5,16.5
2023/09/24 23:10:00, 0.3,16.4
2023/09/24 23:20:00, 0.3,16.5
2023/09/24 23:30:00, 0.3,16.7
2023/09/24 23:40:00, 0.3,16.7
2023/09/24 23:50:00, 0.6,16.7
